Regional Weather Roundup
Issued by NWS Upton, NY

Current Version | Previous Version | Text Only | Print | Product List | Glossary Off
Versions: 1 2 3 4 5 6 7 8 9 10 11 12 13 14 15 16 17 18 19 20 21 22 23 24 25 26 27 28 29 30 31 32 33 34 35
000 ASUS41 KOKX 222005 RWROKX REGIONAL WEATHER ROUNDUP NATIONAL WEATHER SERVICE NEW YORK NY 400 PM EDT WED OCT 22 2014 NOTE: "FAIR" INDICATES FEW OR NO CLOUDS BELOW 12,000 FEET WITH NO SIGNIFICANT WEATHER AND/OR OBSTRUCTIONS TO VISIBILITY. NYZ071-072-176-178-NJZ106-104-222100- NEW YORK CITY METRO AREA CITY SKY/WX TMP DP RH WIND PRES REMARKS CENTRAL PARK CLOUDY 56 48 74 N12G18 29.86F LAGUARDIA APRT CLOUDY 57 47 69 N15G23 29.83F KENNEDY INTL CLOUDY 57 47 69 N21G32 29.82F NEWARK/LIBERTY CLOUDY 56 48 74 N26G33 29.84F BRNX BOT. GARD N/A 55 46 71 N5 29.84F TETERBORO CLOUDY 56 47 71 N16G30 29.84F $$ NYZ177-179-078>081-222100- LONG ISLAND NEW YORK CITY SKY/WX TMP DP RH WIND PRES REMARKS FARMINGDALE CLOUDY 55 49 80 NE24G37 29.80F ISLIP CLOUDY 54 50 86 N23G37 29.77F SHIRLEY LGT RAIN 54 50 86 N17G35 29.79F WESTHAMPTON LGT RAIN 54 51 90 N21G35 29.79F FOG MONTAUK POINT N/A 56 52 86 N17G33 29.80F $$ NYZ052-065-067-222100- HUDSON VALLEY CITY SKY/WX TMP DP RH WIND PRES REMARKS WHITE PLAINS CLOUDY 54 46 74 N18G29 29.84F NEWBURGH NOT AVBL MONTGOMERY RAIN 53 47 79 N17G26 29.91F POUGHKEEPSIE CLOUDY 52 48 86 N13 29.92F ALBANY CLOUDY 53 45 74 N12G23 30.02F $$ NJZ001-105-106-008-010-013-015-019>022-104-222100- NEW JERSEY CITY SKY/WX TMP DP RH WIND PRES REMARKS NEWARK/LIBERTY CLOUDY 56 48 74 N26G33 29.84F TETERBORO CLOUDY 56 47 71 N16G30 29.84F CALDWELL CLOUDY 54 46 74 VRB7 29.87F MORRISTOWN LGT RAIN 55 50 82 NE21G29 29.87F SOMERVILLE CLOUDY 56 47 71 N12G22 29.85F SUSSEX CLOUDY 56 47 71 N13G22 29.91F ANDOVER N/A 52 48 86 VRB6 29.90F TRENTON LGT RAIN 53 49 86 N15G25 29.83F MILLVILLE RAIN 55 52 89 N14G22 29.80S ATLANTIC CITY LGT RAIN 55 53 93 N16G23 29.76S WRIGHTSTOWN LGT RAIN 54 51 88 N17G29 29.79S TOMS RIVER CLOUDY 55 54 94 N10G22 29.78F BELMAR CLOUDY 54 48 82 N18G28 29.80S $$ PAZ047>061-062-071-222100- EASTERN PENNSYLVANIA CITY SKY/WX TMP DP RH WIND PRES REMARKS PHILADELPHIA LGT RAIN 55 50 83 N16G25 29.84F ALLENTOWN CLOUDY 57 47 69 N12 29.90F SCRANTON CLOUDY 53 46 77 N17G26 29.97S $$ CTZ002-004>006-009-010-012-RIZ004-006-007-MAZ004-011-015-222100- SOUTHERN NEW ENGLAND IN CT CITY SKY/WX TMP DP RH WIND PRES REMARKS BRADLEY INTL LGT RAIN 52 48 86 N14 29.90F FOG HARTFORD CLOUDY 52 48 86 N15G22 29.89F DANBURY LGT RAIN 52 46 80 N16G22 29.88F WTRBRY/OXFORD CLOUDY 50 43 76 NE17G26 29.86F BRIDGEPORT CLOUDY 55 48 77 N21G32 29.83F MERIDEN LGT RAIN 51 48 89 N13G22 29.88F FOG NEW HAVEN LGT RAIN 55 49 80 N22G32 29.83F CHESTER HVY RAIN 52 48 87 NE15G22 29.85F GROTON LGT RAIN 52 50 93 N21G35 29.80F WILLIMANTIC LGT RAIN 52 48 86 NE13G23 29.87F IN RI CITY SKY/WX TMP DP RH WIND PRES REMARKS PROVIDENCE LGT RAIN 53 50 89 N21G26 29.87F FOG BLOCK ISLAND CLOUDY 55 50 82 NE25G41 29.79F WESTERLY LGT RAIN 53 50 89 N16G26 29.81F IN MA CITY SKY/WX TMP DP RH WIND PRES REMARKS BOSTON DRIZZLE 51 49 92 N25G35 29.91F FOG WORCESTER LGT RAIN 47 46 97 NE22G35 29.91F FOG WESTFIELD LGT RAIN 52 47 83 N17G24 29.93F PROVINCETOWN CLOUDY 55 54 94 NE22G31 29.82F NANTUCKET LGT RAIN 56 55 97 N17G25 29.77F FOG $$ ANZ330-335-338-340-345-350-353-355-222100- COASTAL MARINE OBSERVATIONS STATION/POSITION TIME SKY/WX TEMP WIND PRES VSBY WAVE AIR SEA DIR/SP/G HT/PER (UTC) (F) (DEG/KT/KT) (MB) (MI) (FT/S) NY HARB ENTRANCE NOT AVBL 4S FIRE IS 2000 63 N/A 7/ 8 20S FIRE ISLAND 2000 58 64 20/ 33/ 41 1005.6 10/ 7 23SW MTP 2000 N/A 9/ 7 HUDSON CANYON 2000 63 66 30/ 37/ 45 1000.1 EXECUTION ROCKS 1900 58 63 20/ 21/ 29 N/A WESTERN LI SOUND 2000 57 30/ 21/ 29 N/A 3/ 5 CENTRAL LI SOUND 1900 55 64 20/ 25/ 31 N/A 4/ 6 EASTERN LI SOUND 1900 56 63 40/ 21/ 29 N/A ROBBINS REEF 2000 56 360/ 23/ 28 1008.8 $$ >>>>>>>>>>>>>>>>>>>>>>>>>>>> KEY <<<<<<<<<<<<<<<<<<<<<<<<<<< > < > SKY/WX - SKY CONDITION/PRESENT WEATHER < > TMP - TEMPERATURE IN FAHRENHEIT < > DP - DEWPOINT IN FAHRENHEIT < > RH - RELATIVE HUMIDITY IN PERCENT < > WIND - DIRECTION AND SPEED IN MPH < > PRES - MEAN SEA LEVEL PRESSURE IN INCHES OF HG < > WCI - WIND CHILL INDEX < > VSB - VISIBILITY IN MILES < > HX - HEAT INDEX < > TC - TEMPERATURE IN CELSIUS < > VRB - VARIABLE WIND DIRECTION < > < >>>>>>>>>>>>>>>>>>>>>>>>>>>> KEY <<<<<<<<<<<<<<<<<<<<<<<<<<<

USA.gov is the U.S. government's official web portal to all federal, state and local government web resources and services.